This demonstration page uses our WeatherBlox Daily Observations layout. Learn more.

Left ArrowRight Arrow

39.29038, -76.61219

Hourly Observations for October 16, 2020

Temp ( °F °C ) Dew Point ( °F °C ) Humidity (%) Winds ( mph kmh ) Pressure ( in mb ) Visibility ( mi km ) Precip ( " mm )
12:54 am 00:54 Mostly Cloudy 61 16.1 58 14.4 90 90 Calm 29.95 1014 10 16 0.00 0.00
1:54 am 01:54 Cloudy 61 16.1 59 15 93 93 Calm 29.96 1014 10 16 0.00 0.00
2:54 am 02:54 Cloudy 66 18.9 59 15 78 78 SSW 6 9 29.96 1014 10 16 0.00 0.00
3:54 am 03:54 Mostly Cloudy 63 17.2 57 13.9 81 81 WNW 8 13 29.96 1015 10 16 0.05 1.27
4:54 am 04:54 Cloudy 62 16.7 52 11.1 70 70 NW 10 17 30.00 1016 10 16 0.00 0.00
5:54 am 05:54 Cloudy 61 16.1 49 9.4 65 65 NW 6 9 30.02 1017 10 16 0.00 0.00
6:54 am 06:54 Cloudy 61 16.1 49 9.4 65 65 NW 9 15 30.06 1018 10 16 0.00 0.00
7:54 am 07:54 Cloudy with Light Rain 57 13.9 49 9.4 74 74 N 9 15 30.09 1019 8 13 0.02 0.51
8:54 am 08:54 Cloudy with Rain 54 12.2 49 9.4 83 83 VRB 3 6 30.12 1020 5 8 0.09 2.29
9:54 am 09:54 Cloudy with Light Rain 54 12.2 49 9.4 83 83 NNE 3 6 30.13 1020 10 16 0.06 1.52
10:54 am 10:54 Cloudy 55 12.8 49 9.4 80 80 NNW 3 6 30.12 1020 10 16 0.00 0.00
11:54 am 11:54 Cloudy 56 13.3 49 9.4 77 77 N 5 7 30.14 1021 10 16 0.00 0.00
12:54 pm 12:54 Cloudy 56 13.3 48 8.9 75 75 ENE 5 7 30.14 1021 10 16 0.01 0.25
1:54 pm 13:54 Cloudy 57 13.9 48 8.9 72 72 NNE 3 6 30.13 1020 10 16 0.00 0.00
2:54 pm 14:54 Mostly Cloudy 57 13.9 48 8.9 72 72 NNE 3 6 30.13 1020 10 16 0.00 0.00
3:54 pm 15:54 Mostly Cloudy 58 14.4 47 8.3 67 67 VRB 7 11 30.10 1019 10 16 0.00 0.00
4:54 pm 16:54 Mostly Cloudy 58 14.4 46 7.8 65 65 NNE 7 11 30.10 1019 10 16 0.00 0.00
5:54 pm 17:54 Mostly Cloudy 57 13.9 45 7.2 64 64 NNW 8 13 30.11 1020 10 16 0.00 0.00
6:54 pm 18:54 Mostly Cloudy 55 12.8 42 5.6 62 62 NNW 5 7 30.13 1020 10 16 0.00 0.00
7:54 pm 19:54 Cloudy 54 12.2 43 6.1 67 67 NNW 3 6 30.14 1021 10 16 0.00 0.00
8:54 pm 20:54 Cloudy 54 12.2 42 5.6 64 64 N 3 6 30.14 1021 10 16 0.00 0.00
9:54 pm 21:54 Cloudy 52 11.1 45 7.2 77 77 WNW 6 9 30.18 1022 10 16 0.00 0.00
10:54 pm 22:54 Cloudy 52 11.1 44 6.7 75 75 WNW 3 6 30.17 1022 10 16 0.00 0.00
11:54 pm 23:54 Cloudy 51 10.6 44 6.7 77 77 WNW 6 9 30.16 1022 10 16 0.00 0.00

Powered by AerisWeather